Sunday, May 29, 2016
00:02 UTC
  |  Log In   |  Register Free
Airport Search:

Durant Regional - Eaker Field Airport
(KDUA)

Durant Regional - Eaker Field Airport Diagram
No Airport Diagram Available

FAA data valid effective Mar 31 2016 - May 26 2016 (unless otherwise noted).

 
 
 
 
 
 
 
 
 
 
 
 
 
 
Current Aviation Weather for KDUA

Weather Summary


The most recent METAR observation for DUA was updated at: 12:55 UTC
METAR for KDUA is not available. Closest METAR is for KGYI
KDUA  (most recent observation was updatred at 28:23 UTC)
282335Z AUTO 12007KT 10SM CLR 30/21 A2995 RMK AO2

KGYI  (19.5 nm NE)   (most recent observation was updated at 28:23 UTC)
282335Z AUTO 13008KT 10SM SCT034 26/20 A2995 RMK AO2 T02590195

KAQR  (30.0 nm SW)   (most recent observation was updated at 28:23 UTC)
282335Z AUTO 14004KT 10SM CLR 28/19 A2996 RMK AO2

TAF for KDUA is not available.
GlobalAir.com is loading additional information.
 Current Weather at DUA
86.0 F° (30.0 C°)

Southeast winds at 5.8 mph
Pressure:
29.95 in
Humidity:
59%
Wind:
Southeast at 5.8 mph
Dew Point:
69.8 F° (21.0 C°)
Visibility:
10.00 mi
DUA NOAA Radar




Find All Airport Services Find A Hotel Find A Rental Car Find A Golf Course Find A Restaurant $100 Hamburger



Airport Weather Forecast for KDUA

Translated METAR for KDUA (2335 UTC)
METAR:
KDUA 282335Z AUTO 12007KT 10SM CLR 30/21 A2995 RMK AO2
Conditions at:
KDUA (Durant Rgnl - Eaker Field, OK) observed 2335 UTC 28 May 2016
Temperature:
30°C (86°F)
Dewpoint:
21°C (69.8°F) [RH = 58.6]
Pressure:
29.95 inches Hg (1014.2 mb)
Winds:
from the ESE (120 degrees) at 8.1 mph (7 knots: 3.6 m/s)
Visibility:
10 mile(s)
Ceiling:
at least 12,000 feet AGL
Clouds:
Clear below 12,000 feet AGL
Remarks:
site is un-manned
site is automated and HAS a precipitation sensor

Translated TAF for TAF for DUA is not available. Refer to local area forecast.
FBO's on the Field
FBO Company Facility Photos Services Transportation Aviation Fuel Prices: Prices include tax
Catering Weather Repair Courtesy Rental Type 100LL JetA JetA+ MOGAS 8087
 
D/W Aviation

This FBO has not yet been rated
FS:Avfuel
Last Updated: Apr-29
Login to update fuel prices
SS:
Contact D/W AviationMore FBO Information
 
Add another FBO Facility Photos Catering Weather Repair Courtesy Rental Type 100LL JetA JetA+ MOGAS 8087
Services Transportation Aviation Fuel Prices: Prices include tax


model-print
model-print
model-print
model-print